Location: Moscow
(55.7500°N, 37.5830°E)
Time: 08:16:07
(UTC+03:00)

Transit 2A - Pass Details

Date: 08 December 2021
Orbit: 591 x 967 km, 66.7° (Epoch: 17 January)

Event Time Altitude Azimuth Distance (km) Brightness Sun altitude
Exits shadow 03:04:20 18° 40° (NE) 2,212 8.8 -45.5°
Drops below altitude 10° 03:06:01 10° 49° (NE) 2,716 9.4 -45.2°
Sets 03:08:53 0° 58° (ENE) 3,663 10.3 -44.9°
